| time (UTC) | temp F | wind direction | speed MPH | gust MPH | rain 1hr in | rain 24hr in | rain mn in | humidity % | barometer mb |
| 20260509161631 | 75 | 20 | 1.0 | 2.0 | 0.00 | 0.00 | 0.00 | 88 | 1012.7 |
| 20260509161126 | 75 | 20 | 1.0 | 2.0 | 0.00 | 0.00 | 0.00 | 87 | 1012.8 |
| 20260509160623 | 75 | 346 | 4.0 | 4.0 | 0.00 | 0.00 | 0.00 | 87 | 1012.6 |
| 20260509160118 | 75 | 20 | 2.0 | 3.0 | 0.00 | 0.00 | 0.00 | 89 | 1012.7 |
| 20260509155615 | 75 | 38 | 3.0 | 4.0 | 0.00 | 0.00 | 0.00 | 87 | 1012.4 |
| 20260509155111 | 75 | 49 | 3.0 | 4.0 | 0.00 | 0.00 | 0.00 | 89 | 1012.5 |
| 20260509154607 | 74 | 49 | 2.0 | 2.0 | 0.00 | 0.00 | 0.00 | 90 | 1012.6 |
| 20260509154104 | 74 | 45 | 2.0 | 2.0 | 0.00 | 0.00 | 0.00 | 90 | 1012.6 |
| 20260509153601 | 73 | 46 | 3.0 | 3.0 | 0.00 | 0.00 | 0.00 | 90 | 1012.8 |
| 20260509153058 | 73 | 43 | 5.0 | 6.0 | 0.00 | 0.00 | 0.00 | 90 | 1012.5 |
| 20260509152554 | 74 | 17 | 2.0 | 3.0 | 0.00 | 0.00 | 0.00 | 89 | 1012.4 |
| 20260509152051 | 73 | 48 | 0.0 | 1.0 | 0.00 | 0.00 | 0.00 | 91 | 1012.7 |
| 20260509151547 | 72 | 105 | 0.0 | 1.0 | 0.00 | 0.00 | 0.00 | 92 | 1012.8 |
| 20260509151045 | 72 | 105 | 1.0 | 2.0 | 0.00 | 0.00 | 0.00 | 93 | 1012.9 |
| 20260509150543 | 71 | 106 | 2.0 | 2.0 | 0.00 | 0.00 | 0.00 | 93 | 1012.8 |
| 20260509150041 | 71 | 106 | 2.0 | 2.0 | 0.00 | 0.00 | 0.00 | 93 | 1013.0 |
| 20260509145536 | 70 | 106 | 0.0 | 0.0 | 0.00 | 0.00 | 0.00 | 94 | 1012.9 |
| 20260509145031 | 70 | 106 | 1.0 | 1.0 | 0.00 | 0.00 | 0.00 | 95 | 1013.0 |
| 20260509144529 | 69 | 106 | 3.0 | 3.0 | 0.00 | 0.00 | 0.00 | 95 | 1012.9 |
| 20260509144026 | 69 | 107 | 0.0 | 1.0 | 0.00 | 0.00 | 0.00 | 96 | 1012.8 |
| 20260509143523 | 69 | 106 | 3.0 | 4.0 | 0.00 | 0.00 | 0.00 | 96 | 1012.9 |
| 20260509143021 | 69 | 107 | 2.0 | 3.0 | 0.00 | 0.00 | 0.00 | 96 | 1013.0 |
| 20260509142516 | 69 | 107 | 2.0 | 2.0 | 0.00 | 0.00 | 0.00 | 96 | 1013.1 |
| 20260509142011 | 68 | 107 | 2.0 | 3.0 | 0.00 | 0.00 | 0.00 | 96 | 1012.9 |
| 20260509141508 | 68 | 107 | 1.0 | 1.0 | 0.00 | 0.00 | 0.00 | 96 | 1012.9 |
| 20260509141005 | 68 | 106 | 4.0 | 4.0 | 0.00 | 0.00 | 0.00 | 96 | 1013.0 |
| 20260509140502 | 68 | 79 | 4.0 | 4.0 | 0.00 | 0.00 | 0.00 | 96 | 1012.9 |
| 20260509140000 | 68 | 118 | 3.0 | 3.0 | 0.00 | 0.00 | 0.00 | 96 | 1013.1 |
| 20260509135457 | 68 | 95 | 1.0 | 1.0 | 0.00 | 0.00 | 0.00 | 96 | 1013.0 |
| 20260509134954 | 68 | 95 | 2.0 | 3.0 | 0.00 | 0.00 | 0.00 | 96 | 1013.0 |
| 20260509134451 | 68 | 105 | 2.0 | 2.0 | 0.00 | 0.00 | 0.00 | 95 | 1013.0 |
| 20260509133949 | 68 | 117 | 3.0 | 3.0 | 0.00 | 0.00 | 0.00 | 95 | 1013.0 |
| 20260509133445 | 68 | 107 | 4.0 | 4.0 | 0.00 | 0.00 | 0.00 | 95 | 1013.0 |
| 20260509132943 | 68 | 107 | 2.0 | 2.0 | 0.00 | 0.00 | 0.00 | 95 | 1012.8 |
| 20260509132441 | 67 | 99 | 4.0 | 4.0 | 0.00 | 0.00 | 0.00 | 95 | 1012.9 |
| 20260509131938 | 67 | 111 | 1.0 | 1.0 | 0.00 | 0.00 | 0.00 | 95 | 1012.9 |
| 20260509131435 | 67 | 142 | 3.0 | 3.0 | 0.00 | 0.00 | 0.00 | 95 | 1013.0 |
| 20260509130932 | 67 | 142 | 1.0 | 1.0 | 0.00 | 0.00 | 0.00 | 95 | 1013.1 |
| 20260509130427 | 67 | 143 | 2.0 | 3.0 | 0.00 | 0.00 | 0.00 | 95 | 1013.1 |
| 20260509125924 | 68 | 144 | 2.0 | 3.0 | 0.00 | 0.00 | 0.00 | 95 | 1013.1 |
| 20260509125421 | 67 | 144 | 3.0 | 3.0 | 0.00 | 0.00 | 0.00 | 95 | 1013.0 |
| 20260509124917 | 67 | 192 | 3.0 | 3.0 | 0.00 | 0.00 | 0.00 | 95 | 1012.9 |
| 20260509124414 | 67 | 179 | 3.0 | 4.0 | 0.00 | 0.00 | 0.00 | 95 | 1012.7 |
| 20260509123912 | 67 | 118 | 3.0 | 3.0 | 0.00 | 0.00 | 0.00 | 95 | 1013.0 |
| 20260509123409 | 66 | 155 | 3.0 | 3.0 | 0.00 | 0.00 | 0.00 | 96 | 1013.0 |
| 20260509122904 | 66 | 109 | 4.0 | 4.0 | 0.00 | 0.00 | 0.00 | 96 | 1012.9 |
| 20260509122402 | 66 | 96 | 2.0 | 3.0 | 0.00 | 0.00 | 0.00 | 96 | 1012.8 |
| 20260509121858 | 66 | 96 | 2.0 | 2.0 | 0.00 | 0.00 | 0.00 | 96 | 1012.8 |
| 20260509121355 | 66 | 96 | 2.0 | 2.0 | 0.00 | 0.00 | 0.00 | 96 | 1012.7 |
| 20260509120854 | 66 | 96 | 2.0 | 2.0 | 0.00 | 0.00 | 0.00 | 96 | 1012.6 |
| 20260509120351 | 66 | 96 | 3.0 | 3.0 | 0.00 | 0.00 | 0.00 | 97 | 1012.5 |
| 20260509115849 | 65 | 96 | 2.0 | 2.0 | 0.00 | 0.00 | 0.00 | 97 | 1012.5 |
| 20260509115346 | 65 | 96 | 0.0 | 1.0 | 0.00 | 0.00 | 0.00 | 97 | 1012.5 |
| 20260509114844 | 65 | 97 | 1.0 | 2.0 | 0.00 | 0.00 | 0.00 | 97 | 1012.6 |
| 20260509114342 | 65 | 97 | 1.0 | 2.0 | 0.00 | 0.00 | 0.00 | 96 | 1012.4 |
| 20260509113841 | 65 | 96 | 2.0 | 2.0 | 0.00 | 0.00 | 0.00 | 96 | 1012.3 |
| 20260509113338 | 65 | 96 | 1.0 | 1.0 | 0.00 | 0.00 | 0.00 | 97 | 1012.1 |
| 20260509112834 | 65 | 96 | 1.0 | 1.0 | 0.00 | 0.00 | 0.00 | 97 | 1011.8 |
| 20260509112332 | 65 | 96 | 1.0 | 1.0 | 0.00 | 0.00 | 0.00 | 96 | 1011.9 |
| 20260509111829 | 65 | 96 | 1.0 | 1.0 | 0.00 | 0.00 | 0.00 | 96 | 1011.8 |
| 20260509111325 | 65 | 96 | 0.0 | 0.0 | 0.00 | 0.00 | 0.00 | 96 | 1011.9 |
| 20260509110823 | 65 | 96 | 0.0 | 0.0 | 0.00 | 0.00 | 0.00 | 97 | 1011.8 |
| 20260509110319 | 65 | 96 | 1.0 | 2.0 | 0.00 | 0.00 | 0.00 | 97 | 1011.4 |
| 20260509105817 | 65 | 96 | 0.0 | 2.0 | 0.00 | 0.00 | 0.00 | 97 | 1011.3 |
| 20260509105315 | 65 | 96 | 0.0 | 0.0 | 0.00 | 0.00 | 0.00 | 97 | 1011.4 |
| 20260509104812 | 65 | 96 | 2.0 | 2.0 | 0.00 | 0.00 | 0.00 | 97 | 1011.6 |
| 20260509104308 | 65 | 96 | 2.0 | 2.0 | 0.00 | 0.00 | 0.00 | 96 | 1011.3 |
| 20260509103806 | 65 | 96 | 0.0 | 0.0 | 0.00 | 0.00 | 0.00 | 96 | 1011.4 |
| 20260509103303 | 65 | 96 | 0.0 | 0.0 | 0.00 | 0.00 | 0.00 | 96 | 1011.4 |
| 20260509102802 | 65 | 96 | 1.0 | 2.0 | 0.00 | 0.00 | 0.00 | 96 | 1011.4 |
| 20260509102259 | 65 | 96 | 1.0 | 1.0 | 0.00 | 0.00 | 0.00 | 96 | 1011.1 |
| 20260509101755 | 65 | 97 | 0.0 | 1.0 | 0.00 | 0.00 | 0.00 | 96 | 1011.3 |
| 20260509101251 | 65 | 97 | 1.0 | 2.0 | 0.00 | 0.00 | 0.00 | 96 | 1011.2 |
| 20260509100749 | 65 | 65 | 1.0 | 2.0 | 0.00 | 0.00 | 0.00 | 96 | 1011.2 |
| 20260509100246 | 65 | 65 | 1.0 | 1.0 | 0.00 | 0.00 | 0.00 | 96 | 1011.2 |
| 20260509095742 | 65 | 101 | 1.0 | 2.0 | 0.00 | 0.00 | 0.00 | 96 | 1011.4 |
| 20260509095240 | 65 | 101 | 3.0 | 3.0 | 0.00 | 0.00 | 0.00 | 96 | 1011.5 |
| 20260509094737 | 65 | 101 | 2.0 | 2.0 | 0.00 | 0.00 | 0.00 | 96 | 1011.4 |
| 20260509094233 | 65 | 101 | 1.0 | 1.0 | 0.00 | 0.00 | 0.00 | 96 | 1011.4 |
| 20260509093731 | 65 | 101 | 0.0 | 1.0 | 0.00 | 0.00 | 0.00 | 97 | 1011.2 |
| 20260509093228 | 65 | 101 | 0.0 | 1.0 | 0.00 | 0.00 | 0.00 | 96 | 1011.4 |
| 20260509092727 | 65 | 101 | 1.0 | 1.0 | 0.00 | 0.00 | 0.00 | 96 | 1011.5 |
| 20260509092224 | 65 | 101 | 1.0 | 2.0 | 0.00 | 0.00 | 0.00 | 97 | 1011.4 |
| 20260509091722 | 65 | 101 | 0.0 | 0.0 | 0.00 | 0.00 | 0.00 | 96 | 1011.1 |
| 20260509091218 | 65 | 101 | 1.0 | 2.0 | 0.00 | 0.00 | 0.00 | 96 | 1011.3 |
| 20260509090716 | 65 | 101 | 2.0 | 2.0 | 0.00 | 0.00 | 0.00 | 96 | 1011.2 |
| 20260509090213 | 65 | 101 | 0.0 | 0.0 | 0.00 | 0.00 | 0.00 | 95 | 1011.4 |
| 20260509085711 | 65 | 101 | 0.0 | 0.0 | 0.00 | 0.00 | 0.00 | 95 | 1011.5 |
| 20260509085207 | 66 | 101 | 0.0 | 0.0 | 0.00 | 0.00 | 0.00 | 95 | 1011.4 |
| 20260509084704 | 66 | 101 | 1.0 | 1.0 | 0.00 | 0.00 | 0.00 | 95 | 1011.7 |
| 20260509084201 | 66 | 101 | 1.0 | 1.0 | 0.00 | 0.00 | 0.00 | 94 | 1011.5 |
| 20260509083659 | 66 | 101 | 0.0 | 1.0 | 0.00 | 0.00 | 0.00 | 94 | 1011.8 |
| 20260509083155 | 66 | 101 | 1.0 | 1.0 | 0.00 | 0.00 | 0.00 | 94 | 1011.7 |
| 20260509082652 | 66 | 101 | 1.0 | 1.0 | 0.00 | 0.00 | 0.00 | 94 | 1011.6 |
| 20260509082148 | 66 | 101 | 0.0 | 0.0 | 0.00 | 0.00 | 0.00 | 94 | 1011.8 |
| 20260509081645 | 66 | 101 | 1.0 | 2.0 | 0.00 | 0.00 | 0.00 | 94 | 1011.8 |
| 20260509081143 | 66 | 101 | 2.0 | 2.0 | 0.00 | 0.00 | 0.00 | 94 | 1012.0 |
| 20260509080641 | 66 | 101 | 1.0 | 1.0 | 0.00 | 0.00 | 0.00 | 94 | 1011.8 |
| 20260509080139 | 66 | 101 | 1.0 | 2.0 | 0.00 | 0.00 | 0.00 | 95 | 1011.9 |
| 20260509075637 | 66 | 101 | 1.0 | 2.0 | 0.00 | 0.00 | 0.00 | 95 | 1012.1 |
| 20260509075134 | 66 | 101 | 2.0 | 3.0 | 0.00 | 0.00 | 0.00 | 95 | 1012.1 |
| 20260509074631 | 66 | 92 | 1.0 | 1.0 | 0.00 | 0.00 | 0.00 | 95 | 1012.1 |
| 20260509074127 | 66 | 105 | 2.0 | 2.0 | 0.00 | 0.00 | 0.00 | 95 | 1012.2 |
| 20260509073624 | 66 | 89 | 2.0 | 2.0 | 0.00 | 0.00 | 0.00 | 94 | 1012.2 |
| 20260509073120 | 66 | 88 | 2.0 | 2.0 | 0.00 | 0.00 | 0.00 | 92 | 1012.4 |
| 20260509072617 | 66 | 88 | 0.0 | 0.0 | 0.00 | 0.00 | 0.00 | 93 | 1012.1 |
| 20260509072114 | 66 | 88 | 0.0 | 1.0 | 0.00 | 0.00 | 0.00 | 94 | 1012.2 |
| 20260509071610 | 66 | 88 | 1.0 | 2.0 | 0.00 | 0.00 | 0.00 | 94 | 1012.2 |
| 20260509071108 | 65 | 88 | 1.0 | 2.0 | 0.00 | 0.00 | 0.00 | 95 | 1012.2 |
| 20260509070605 | 66 | 117 | 2.0 | 2.0 | 0.00 | 0.00 | 0.00 | 94 | 1011.9 |
| 20260509070101 | 66 | 119 | 2.0 | 3.0 | 0.00 | 0.00 | 0.00 | 95 | 1011.8 |
| 20260509065556 | 66 | 177 | 4.0 | 6.0 | 0.00 | 0.00 | 0.00 | 94 | 1011.9 |
| 20260509065053 | 66 | 191 | 3.0 | 3.0 | 0.00 | 0.00 | 0.00 | 95 | 1012.2 |
| 20260509064550 | 66 | 191 | 2.0 | 2.0 | 0.00 | 0.00 | 0.00 | 94 | 1012.5 |
| 20260509064048 | 66 | 191 | 1.0 | 1.0 | 0.00 | 0.00 | 0.00 | 94 | 1012.7 |
| 20260509063544 | 66 | 191 | 0.0 | 1.0 | 0.00 | 0.00 | 0.00 | 93 | 1012.7 |
| 20260509063041 | 66 | 191 | 0.0 | 0.0 | 0.00 | 0.00 | 0.00 | 93 | 1012.6 |
| 20260509062538 | 66 | 191 | 1.0 | 1.0 | 0.00 | 0.00 | 0.00 | 93 | 1012.7 |
| 20260509062036 | 66 | 191 | 1.0 | 1.0 | 0.00 | 0.00 | 0.00 | 94 | 1012.5 |
| 20260509061532 | 65 | 191 | 1.0 | 2.0 | 0.00 | 0.00 | 0.00 | 94 | 1012.6 |
| 20260509061030 | 65 | 191 | 0.0 | 0.0 | 0.00 | 0.00 | 0.00 | 94 | 1012.8 |
| 20260509060527 | 65 | 191 | 0.0 | 0.0 | 0.00 | 0.00 | 0.00 | 94 | 1013.0 |
| 20260509060023 | 65 | 191 | 0.0 | 0.0 | 0.00 | 0.00 | 0.00 | 94 | 1012.8 |
| 20260509055518 | 66 | 191 | 1.0 | 1.0 | 0.00 | 0.00 | 0.00 | 93 | 1012.7 |
| 20260509055015 | 66 | 191 | 1.0 | 2.0 | 0.00 | 0.00 | 0.00 | 92 | 1012.5 |
| 20260509054512 | 66 | 192 | 2.0 | 3.0 | 0.00 | 0.00 | 0.00 | 92 | 1012.4 |
| 20260509054010 | 66 | 192 | 1.0 | 2.0 | 0.00 | 0.00 | 0.00 | 92 | 1012.7 |
| 20260509053508 | 66 | 189 | 2.0 | 2.0 | 0.00 | 0.00 | 0.00 | 91 | 1012.6 |
| 20260509053005 | 66 | 139 | 2.0 | 2.0 | 0.00 | 0.00 | 0.00 | 92 | 1012.7 |
| 20260509052502 | 66 | 112 | 2.0 | 3.0 | 0.00 | 0.00 | 0.00 | 92 | 1012.6 |
| 20260509052000 | 67 | 112 | 4.0 | 4.0 | 0.00 | 0.00 | 0.00 | 90 | 1012.8 |
| 20260509051458 | 67 | 86 | 1.0 | 2.0 | 0.00 | 0.00 | 0.00 | 89 | 1012.7 |
| 20260509050954 | 67 | 86 | 1.0 | 1.0 | 0.00 | 0.00 | 0.00 | 89 | 1012.9 |
| 20260509050451 | 67 | 86 | 2.0 | 2.0 | 0.00 | 0.00 | 0.00 | 90 | 1012.9 |
| 20260509045948 | 68 | 86 | 2.0 | 2.0 | 0.00 | 0.00 | 0.00 | 90 | 1013.1 |
| 20260509045445 | 68 | 76 | 2.0 | 2.0 | 0.00 | 0.00 | 0.00 | 89 | 1013.2 |
| 20260509044942 | 68 | 76 | 0.0 | 1.0 | 0.00 | 0.00 | 0.00 | 89 | 1013.5 |
| 20260509044440 | 68 | 75 | 0.0 | 1.0 | 0.00 | 0.00 | 0.00 | 89 | 1013.6 |
| 20260509043937 | 68 | 42 | 3.0 | 4.0 | 0.00 | 0.00 | 0.00 | 90 | 1013.6 |
| 20260509043432 | 68 | 65 | 4.0 | 4.0 | 0.00 | 0.00 | 0.00 | 91 | 1013.5 |
| 20260509042928 | 67 | 37 | 6.0 | 7.0 | 0.00 | 0.00 | 0.00 | 92 | 1013.8 |
| 20260509042426 | 67 | 33 | 4.0 | 6.0 | 0.00 | 0.00 | 0.00 | 93 | 1013.3 |
| 20260509041922 | 67 | 47 | 4.0 | 6.0 | 0.00 | 0.00 | 0.00 | 94 | 1013.1 |
| 20260509041419 | 66 | 34 | 4.0 | 4.0 | 0.00 | 0.00 | 0.00 | 94 | 1012.7 |
| 20260509040917 | 66 | 50 | 4.0 | 4.0 | 0.00 | 0.00 | 0.00 | 95 | 1012.6 |
| 20260509040414 | 66 | 50 | 3.0 | 3.0 | 0.00 | 0.00 | 0.00 | 95 | 1012.4 |
| 20260509035911 | 65 | 89 | 2.0 | 3.0 | 0.00 | 0.00 | 0.00 | 96 | 1011.9 |
| 20260509035408 | 66 | 173 | 1.0 | 1.0 | 0.00 | 0.00 | 0.00 | 95 | 1011.9 |
| 20260509034904 | 66 | 174 | 1.0 | 1.0 | 0.00 | 0.00 | 0.00 | 95 | 1011.7 |
| 20260509034402 | 66 | 173 | 1.0 | 2.0 | 0.00 | 0.00 | 0.00 | 93 | 1011.7 |
| 20260509033859 | 67 | 174 | 1.0 | 2.0 | 0.00 | 0.00 | 0.00 | 92 | 1011.6 |
| 20260509033356 | 67 | 175 | 1.0 | 1.0 | 0.00 | 0.00 | 0.00 | 92 | 1011.6 |
| 20260509032852 | 67 | 175 | 1.0 | 2.0 | 0.00 | 0.00 | 0.00 | 91 | 1011.5 |
| 20260509032350 | 67 | 174 | 3.0 | 3.0 | 0.00 | 0.00 | 0.00 | 90 | 1011.5 |
| 20260509031848 | 68 | 185 | 1.0 | 1.0 | 0.00 | 0.00 | 0.00 | 89 | 1011.7 |
| 20260509031344 | 68 | 181 | 2.0 | 2.0 | 0.00 | 0.00 | 0.00 | 88 | 1011.5 |
| 20260509030842 | 68 | 181 | 1.0 | 1.0 | 0.00 | 0.00 | 0.00 | 89 | 1011.6 |
| 20260509030340 | 68 | 181 | 1.0 | 1.0 | 0.00 | 0.00 | 0.00 | 89 | 1011.6 |
| 20260509025836 | 68 | 181 | 2.0 | 2.0 | 0.00 | 0.00 | 0.00 | 89 | 1011.6 |
| 20260509025331 | 69 | 181 | 1.0 | 1.0 | 0.00 | 0.00 | 0.00 | 88 | 1011.5 |
| 20260509024827 | 69 | 181 | 2.0 | 2.0 | 0.00 | 0.00 | 0.00 | 87 | 1011.5 |
| 20260509024323 | 69 | 181 | 0.0 | 0.0 | 0.00 | 0.00 | 0.00 | 87 | 1011.5 |
| 20260509023821 | 69 | 181 | 0.0 | 1.0 | 0.00 | 0.00 | 0.00 | 87 | 1011.4 |
| 20260509023318 | 70 | 181 | 1.0 | 1.0 | 0.00 | 0.00 | 0.00 | 86 | 1011.2 |
| 20260509022814 | 70 | 165 | 2.0 | 2.0 | 0.00 | 0.00 | 0.00 | 85 | 1010.9 |
| 20260509022312 | 70 | 167 | 3.0 | 3.0 | 0.00 | 0.00 | 0.00 | 83 | 1010.7 |
| 20260509021808 | 70 | 181 | 3.0 | 3.0 | 0.00 | 0.00 | 0.00 | 87 | 1010.6 |
| 20260509021306 | 69 | 170 | 5.0 | 6.0 | 0.00 | 0.00 | 0.00 | 86 | 1011.0 |
| 20260509020803 | 70 | 170 | 2.0 | 2.0 | 0.00 | 0.00 | 0.00 | 87 | 1011.4 |
| 20260509020301 | 71 | 170 | 1.0 | 1.0 | 0.00 | 0.00 | 0.00 | 84 | 1011.4 |
| 20260509015758 | 71 | 170 | 1.0 | 1.0 | 0.00 | 0.00 | 0.00 | 80 | 1011.3 |
| 20260509015257 | 71 | 170 | 1.0 | 1.0 | 0.00 | 0.00 | 0.00 | 80 | 1011.4 |
| 20260509014753 | 71 | 170 | 2.0 | 2.0 | 0.00 | 0.00 | 0.00 | 81 | 1011.2 |
| 20260509014250 | 71 | 171 | 3.0 | 3.0 | 0.00 | 0.00 | 0.00 | 80 | 1011.3 |
| 20260509013746 | 71 | 171 | 2.0 | 3.0 | 0.00 | 0.00 | 0.00 | 80 | 1011.4 |
| 20260509013242 | 71 | 170 | 1.0 | 2.0 | 0.00 | 0.00 | 0.00 | 81 | 1011.3 |
| 20260509012739 | 72 | 170 | 0.0 | 1.0 | 0.00 | 0.00 | 0.00 | 80 | 1011.2 |
| 20260509012235 | 72 | 170 | 1.0 | 1.0 | 0.00 | 0.00 | 0.00 | 82 | 1011.2 |
| 20260509011733 | 72 | 170 | 0.0 | 0.0 | 0.00 | 0.00 | 0.00 | 79 | 1011.3 |
| 20260509011231 | 72 | 170 | 0.0 | 0.0 | 0.00 | 0.00 | 0.00 | 79 | 1011.2 |
| 20260509010728 | 72 | 170 | 0.0 | 0.0 | 0.00 | 0.00 | 0.00 | 79 | 1011.1 |
| 20260509010225 | 72 | 170 | 0.0 | 0.0 | 0.00 | 0.00 | 0.00 | 80 | 1010.8 |
| 20260509005722 | 72 | 170 | 0.0 | 1.0 | 0.00 | 0.00 | 0.00 | 80 | 1010.8 |
| 20260509005219 | 73 | 170 | 2.0 | 2.0 | 0.00 | 0.00 | 0.00 | 80 | 1010.5 |
| 20260509004713 | 73 | 170 | 2.0 | 2.0 | 0.00 | 0.00 | 0.00 | 78 | 1011.0 |
| 20260509004212 | 73 | 170 | 2.0 | 3.0 | 0.00 | 0.00 | 0.00 | 76 | 1010.8 |
| 20260509003709 | 73 | 170 | 4.0 | 4.0 | 0.00 | 0.00 | 0.00 | 76 | 1010.6 |
| 20260509003207 | 73 | 175 | 2.0 | 2.0 | 0.00 | 0.00 | 0.00 | 76 | 1010.5 |
| 20260509002704 | 74 | 177 | 1.0 | 2.0 | 0.00 | 0.00 | 0.00 | 76 | 1010.5 |
| 20260509002201 | 74 | 187 | 3.0 | 3.0 | 0.00 | 0.00 | 0.00 | 76 | 1010.3 |
| 20260509001659 | 74 | 144 | 4.0 | 4.0 | 0.00 | 0.00 | 0.00 | 75 | 1010.3 |
| 20260509001154 | 74 | 173 | 2.0 | 3.0 | 0.00 | 0.00 | 0.00 | 76 | 1010.5 |
| 20260509000653 | 74 | 167 | 2.0 | 3.0 | 0.00 | 0.00 | 0.00 | 78 | 1010.2 |
| 20260509000149 | 74 | 187 | 2.0 | 3.0 | 0.00 | 0.00 | 0.00 | 75 | 1010.4 |
| 20260508235647 | 74 | 124 | 3.0 | 3.0 | 0.00 | 0.00 | 0.00 | 75 | 1010.3 |
| 20260508235143 | 75 | 164 | 4.0 | 6.0 | 0.00 | 0.00 | 0.00 | 75 | 1010.1 |
| 20260508234641 | 75 | 120 | 6.0 | 8.0 | 0.00 | 0.00 | 0.00 | 75 | 1010.3 |
| 20260508234137 | 75 | 111 | 3.0 | 3.0 | 0.00 | 0.00 | 0.00 | 76 | 1010.4 |
| 20260508233636 | 75 | 113 | 3.0 | 6.0 | 0.00 | 0.00 | 0.00 | 75 | 1010.3 |
| 20260508233133 | 75 | 136 | 4.0 | 4.0 | 0.00 | 0.00 | 0.00 | 75 | 1010.1 |
| 20260508232630 | 76 | 110 | 7.0 | 9.0 | 0.00 | 0.00 | 0.00 | 73 | 1010.3 |
| 20260508232128 | 75 | 99 | 5.0 | 6.0 | 0.00 | 0.00 | 0.00 | 75 | 1010.4 |
| 20260508231625 | 76 | 131 | 5.0 | 7.0 | 0.00 | 0.00 | 0.00 | 75 | 1010.4 |
| 20260508231121 | 76 | 124 | 5.0 | 6.0 | 0.00 | 0.00 | 0.00 | 74 | 1010.5 |
| 20260508230618 | 76 | 132 | 3.0 | 4.0 | 0.00 | 0.00 | 0.00 | 77 | 1010.5 |
| 20260508230114 | 75 | 146 | 2.0 | 3.0 | 0.00 | 0.00 | 0.00 | 78 | 1010.7 |
| 20260508225613 | 75 | 123 | 3.0 | 4.0 | 0.00 | 0.00 | 0.00 | 79 | 1010.7 |
| 20260508225109 | 76 | 160 | 4.0 | 6.0 | 0.00 | 0.00 | 0.00 | 80 | 1010.8 |
| 20260508224607 | 75 | 144 | 4.0 | 6.0 | 0.00 | 0.00 | 0.00 | 79 | 1011.0 |
| 20260508224104 | 75 | 114 | 6.0 | 7.0 | 0.00 | 0.00 | 0.00 | 78 | 1011.1 |
| 20260508223602 | 75 | 104 | 4.0 | 6.0 | 0.00 | 0.00 | 0.00 | 79 | 1011.4 |
| 20260508223058 | 75 | 117 | 4.0 | 6.0 | 0.00 | 0.00 | 0.00 | 79 | 1011.4 |
| 20260508222556 | 75 | 173 | 3.0 | 3.0 | 0.00 | 0.00 | 0.00 | 78 | 1011.4 |
| 20260508222053 | 75 | 126 | 4.0 | 4.0 | 0.00 | 0.00 | 0.00 | 79 | 1011.4 |
| 20260508221549 | 75 | 193 | 4.0 | 4.0 | 0.00 | 0.00 | 0.00 | 78 | 1011.6 |
| 20260508221045 | 75 | 169 | 3.0 | 4.0 | 0.00 | 0.00 | 0.00 | 78 | 1011.4 |
| 20260508220542 | 76 | 114 | 2.0 | 3.0 | 0.00 | 0.00 | 0.00 | 78 | 1011.5 |
| 20260508220038 | 75 | 114 | 4.0 | 6.0 | 0.00 | 0.00 | 0.00 | 78 | 1011.6 |
| 20260508215535 | 76 | 156 | 4.0 | 6.0 | 0.00 | 0.00 | 0.00 | 78 | 1011.5 |
| 20260508215032 | 76 | 188 | 2.0 | 2.0 | 0.00 | 0.00 | 0.00 | 79 | 1011.6 |
| 20260508214529 | 75 | 162 | 5.0 | 7.0 | 0.00 | 0.00 | 0.00 | 77 | 1011.4 |
| 20260508214025 | 75 | 165 | 7.0 | 9.0 | 0.00 | 0.00 | 0.00 | 77 | 1011.2 |
| 20260508213523 | 77 | 194 | 5.0 | 6.0 | 0.00 | 0.00 | 0.00 | 74 | 1011.3 |
| 20260508213018 | 76 | 204 | 2.0 | 2.0 | 0.00 | 0.00 | 0.00 | 77 | 1011.3 |
| 20260508212515 | 76 | 183 | 9.0 | 11.0 | 0.00 | 0.00 | 0.00 | 73 | 1011.5 |
| 20260508212012 | 76 | 123 | 5.0 | 7.0 | 0.00 | 0.00 | 0.00 | 76 | 1011.4 |
| 20260508211507 | 75 | 210 | 4.0 | 6.0 | 0.00 | 0.00 | 0.00 | 74 | 1011.5 |
| 20260508211004 | 75 | 176 | 4.0 | 4.0 | 0.00 | 0.00 | 0.00 | 79 | 1011.6 |
| 20260508210500 | 76 | 162 | 3.0 | 3.0 | 0.00 | 0.00 | 0.00 | 77 | 1011.3 |
| 20260508205957 | 76 | 173 | 3.0 | 3.0 | 0.00 | 0.00 | 0.00 | 74 | 1011.5 |
| 20260508205454 | 75 | 156 | 5.0 | 7.0 | 0.00 | 0.00 | 0.00 | 75 | 1011.7 |
| 20260508204950 | 75 | 130 | 7.0 | 8.0 | 0.00 | 0.00 | 0.00 | 75 | 1011.6 |
| 20260508204448 | 75 | 124 | 5.0 | 7.0 | 0.00 | 0.00 | 0.00 | 76 | 1011.9 |
| 20260508203943 | 75 | 196 | 5.0 | 7.0 | 0.00 | 0.00 | 0.00 | 76 | 1011.8 |
| 20260508203439 | 75 | 217 | 5.0 | 7.0 | 0.00 | 0.00 | 0.00 | 74 | 1011.6 |
| 20260508202935 | 75 | 205 | 2.0 | 2.0 | 0.00 | 0.00 | 0.00 | 75 | 1011.9 |
| 20260508202433 | 75 | 130 | 3.0 | 4.0 | 0.00 | 0.00 | 0.00 | 78 | 1012.0 |
| 20260508201930 | 75 | 144 | 4.0 | 6.0 | 0.00 | 0.00 | 0.00 | 78 | 1012.1 |
| 20260508201426 | 75 | 166 | 3.0 | 4.0 | 0.00 | 0.00 | 0.00 | 74 | 1012.4 |
| 20260508200923 | 74 | 200 | 6.0 | 8.0 | 0.00 | 0.00 | 0.00 | 77 | 1012.3 |
| 20260508200420 | 74 | 112 | 4.0 | 6.0 | 0.00 | 0.00 | 0.00 | 76 | 1012.5 |
| 20260508195915 | 74 | 141 | 4.0 | 4.0 | 0.00 | 0.00 | 0.00 | 75 | 1012.5 |
| 20260508195413 | 75 | 167 | 6.0 | 8.0 | 0.00 | 0.00 | 0.00 | 75 | 1012.3 |
| 20260508194908 | 74 | 124 | 5.0 | 7.0 | 0.00 | 0.00 | 0.00 | 78 | 1012.6 |
| 20260508194406 | 73 | 145 | 5.0 | 6.0 | 0.00 | 0.00 | 0.00 | 77 | 1012.7 |
| 20260508193903 | 74 | 154 | 6.0 | 8.0 | 0.00 | 0.00 | 0.00 | 74 | 1012.7 |
| 20260508193359 | 74 | 154 | 7.0 | 8.0 | 0.00 | 0.00 | 0.00 | 73 | 1012.9 |
| 20260508192856 | 73 | 126 | 4.0 | 6.0 | 0.00 | 0.00 | 0.00 | 76 | 1012.8 |
| 20260508192353 | 73 | 154 | 3.0 | 3.0 | 0.00 | 0.00 | 0.00 | 75 | 1013.0 |
| 20260508191850 | 73 | 195 | 4.0 | 4.0 | 0.00 | 0.00 | 0.00 | 71 | 1012.9 |
| 20260508191347 | 72 | 58 | 2.0 | 2.0 | 0.00 | 0.00 | 0.00 | 74 | 1013.1 |
| 20260508190844 | 72 | 167 | 0.0 | 0.0 | 0.00 | 0.00 | 0.00 | 74 | 1013.2 |
| 20260508190341 | 72 | 132 | 3.0 | 3.0 | 0.00 | 0.00 | 0.00 | 73 | 1013.2 |
| 20260508185837 | 72 | 127 | 3.0 | 4.0 | 0.00 | 0.00 | 0.00 | 72 | 1013.3 |
| 20260508185335 | 72 | 112 | 4.0 | 4.0 | 0.00 | 0.00 | 0.00 | 74 | 1013.5 |
| 20260508184832 | 72 | 86 | 5.0 | 6.0 | 0.00 | 0.00 | 0.00 | 73 | 1013.7 |
| 20260508184329 | 72 | 109 | 3.0 | 4.0 | 0.00 | 0.00 | 0.00 | 73 | 1013.8 |
| 20260508183826 | 71 | 213 | 1.0 | 2.0 | 0.00 | 0.00 | 0.00 | 71 | 1014.2 |
| 20260508183322 | 71 | 161 | 5.0 | 6.0 | 0.00 | 0.00 | 0.00 | 74 | 1014.3 |
| 20260508182818 | 71 | 89 | 5.0 | 7.0 | 0.00 | 0.00 | 0.00 | 78 | 1014.4 |
| 20260508182315 | 71 | 107 | 6.0 | 6.0 | 0.00 | 0.00 | 0.00 | 75 | 1014.4 |
| 20260508181811 | 70 | 51 | 4.0 | 6.0 | 0.00 | 0.00 | 0.00 | 75 | 1014.4 |
| 20260508181308 | 71 | 110 | 6.0 | 7.0 | 0.00 | 0.00 | 0.00 | 77 | 1014.6 |
| 20260508180805 | 70 | 121 | 2.0 | 4.0 | 0.00 | 0.00 | 0.00 | 82 | 1014.7 |
| 20260508180302 | 70 | 179 | 3.0 | 4.0 | 0.00 | 0.00 | 0.00 | 81 | 1014.9 |
| 20260508175758 | 69 | 127 | 3.0 | 3.0 | 0.00 | 0.00 | 0.00 | 78 | 1014.9 |
| 20260508175254 | 70 | 142 | 2.0 | 3.0 | 0.00 | 0.00 | 0.00 | 78 | 1015.0 |
| 20260508174753 | 70 | 171 | 4.0 | 4.0 | 0.00 | 0.00 | 0.00 | 80 | 1015.2 |
| 20260508174250 | 69 | 134 | 4.0 | 7.0 | 0.00 | 0.00 | 0.00 | 77 | 1015.3 |
| 20260508173746 | 69 | 112 | 2.0 | 2.0 | 0.00 | 0.00 | 0.00 | 77 | 1015.3 |
| 20260508173242 | 69 | 197 | 4.0 | 6.0 | 0.00 | 0.00 | 0.00 | 79 | 1015.5 |
| 20260508172739 | 69 | 104 | 2.0 | 4.0 | 0.00 | 0.00 | 0.00 | 80 | 1015.6 |
| 20260508172236 | 69 | 126 | 4.0 | 6.0 | 0.00 | 0.00 | 0.00 | 79 | 1015.4 |
| 20260508171733 | 69 | 111 | 4.0 | 7.0 | 0.00 | 0.00 | 0.00 | 79 | 1015.9 |
| 20260508171228 | 70 | 167 | 5.0 | 7.0 | 0.00 | 0.00 | 0.00 | 77 | 1015.7 |
| 20260508170726 | 69 | 139 | 4.0 | 4.0 | 0.00 | 0.00 | 0.00 | 79 | 1015.8 |
| 20260508170223 | 69 | 155 | 5.0 | 7.0 | 0.00 | 0.00 | 0.00 | 81 | 1016.0 |
| 20260508165720 | 68 | 154 | 3.0 | 3.0 | 0.00 | 0.00 | 0.00 | 79 | 1015.9 |
| 20260508165217 | 69 | 113 | 4.0 | 4.0 | 0.00 | 0.00 | 0.00 | 78 | 1015.9 |
| 20260508164714 | 69 | 117 | 4.0 | 4.0 | 0.00 | 0.00 | 0.00 | 77 | 1015.8 |
| 20260508164210 | 68 | 193 | 4.0 | 6.0 | 0.00 | 0.00 | 0.00 | 78 | 1016.0 |
| 20260508163708 | 68 | 110 | 4.0 | 6.0 | 0.00 | 0.00 | 0.00 | 80 | 1016.3 |
| 20260508163206 | 68 | 110 | 4.0 | 4.0 | 0.00 | 0.00 | 0.00 | 79 | 1016.6 |
| 20260508162701 | 68 | 117 | 3.0 | 3.0 | 0.00 | 0.00 | 0.00 | 77 | 1016.6 |
| 20260508162158 | 67 | 100 | 2.0 | 2.0 | 0.00 | 0.00 | 0.00 | 82 | 1016.6 |